Weather History for Puerto Plata, Dominican Republic

Change the Weather History Date:

Monday, October 3, 2011

  Actual Average Record
Temperature  
Mean Temperature 84 °F -  
Max Temperature 92 °F 86 °F 96 °F (1997)
Min Temperature 77 °F 73 °F 71 °F (1996)
Cooling Degree Days 20    
Growing Degree Days 34 (Base 50)    
Moisture  
Dew Point 77 °F    
Average Humidity 79    
Maximum Humidity 94    
Minimum Humidity 66    
Precipitation  
Precipitation 0.00 in - - ()
Sea Level Pressure  
Sea Level Pressure 29.99 in    
Wind  
Wind Speed 5 mph ()    
Max Wind Speed 17 mph    
Max Gust Speed -    
Visibility 6.8 miles    
Events      
Averages and records for this station are not official NWS values.
T = Trace of Precipitation, MM = Missing Value Source: Averaged Metar Reports

Daily Weather History Graph

Daily Weather History Graph

Search for Another Location

Airport:

Trip Planner

Search our weather history database for the weather conditions in past years. The results will help you decide how hot, cold, wet, or windy it might be!

Date:

Astronomy

Oct. 03, 2011 Rise Set
Actual Time 6:33 AM AST 6:28 PM AST
Civil Twilight 6:11 AM AST 6:50 PM AST
Nautical Twilight 5:45 AM AST 7:16 PM AST
Astronomical Twilight 5:20 AM AST 7:41 PM AST
Moon 12:48 PM AST (10/3) No Moon Set
Length of Visible Light 12h 39m
Length of Day
11h 55m
Waxing Crescent, 45% of the Moon is Illuminated
Oct 3
Waxing Crescent
Oct 3
First Quarter
Oct 11
Full
Oct 19
Last Quarter
Oct 26
New

Hourly Weather History & Observations

Time (AST) Temp. Heat Index Dew Point Humidity Pressure Visibility Wind Dir Wind Speed Gust Speed Precip Events Conditions
2:00 AM 78 °F - 74 °F 84% 30.01 in 10 mi Calm Calm - -   Scattered Clouds
2:00 AM 78.8 °F - 73.4 °F 83% 30.01 in 6.2 mi Calm Calm - N/A   Partly Cloudy
5:00 AM 77.0 °F - 75.2 °F 94% 29.98 in 6.2 mi Calm Calm - N/A   Scattered Clouds
8:00 AM 78.8 °F - 77.0 °F 94% 30.04 in 6.2 mi Calm Calm - N/A   Partly Cloudy
9:00 AM 84.2 °F 94.1 °F 77.0 °F 79% 30.04 in 6.2 mi ESE 5.8 mph - N/A   Partly Cloudy
10:00 AM 86.0 °F 99.3 °F 78.8 °F 79% 30.04 in 6.2 mi ESE 11.5 mph - N/A   Partly Cloudy
11:00 AM 89.6 °F 102.2 °F 77.0 °F 66% 30.01 in 6.2 mi ESE 13.8 mph - N/A   Scattered Clouds
12:00 PM 89.6 °F 104.7 °F 78.8 °F 70% 30.01 in 6.2 mi East 13.8 mph - N/A   Scattered Clouds
1:00 PM 89.6 °F 104.7 °F 78.8 °F 70% 29.98 in 6.2 mi East 11.5 mph - N/A   Scattered Clouds
2:00 PM 89.6 °F 104.7 °F 78.8 °F 70% 29.95 in 6.2 mi East 11.5 mph - N/A   Scattered Clouds
3:00 PM 89.6 °F 104.7 °F 78.8 °F 70% 29.95 in 6.2 mi East 17.3 mph - N/A   Scattered Clouds
4:00 PM 89.6 °F 104.7 °F 78.8 °F 70% 29.95 in 6.2 mi East 11.5 mph - N/A   Partly Cloudy
5:00 PM 89.6 °F 104.7 °F 78.8 °F 70% 29.92 in 6.2 mi East 11.5 mph - N/A   Partly Cloudy
6:00 PM 86.0 °F 96.9 °F 77.0 °F 74% 29.95 in 6.2 mi East 9.2 mph - N/A   Partly Cloudy
7:00 PM 84.2 °F 94.1 °F 77.0 °F 79% 29.95 in 6.2 mi East 6.9 mph - N/A   Partly Cloudy
8:00 PM 82 °F - 78 °F 83% 29.99 in 10 mi Calm Calm - -   Scattered Clouds
8:00 PM 82.4 °F 90.9 °F 77.0 °F 84% 29.98 in 6.2 mi Calm Calm - N/A   Partly Cloudy
11:00 PM 79 °F - 76 °F 89% 30.03 in 10 mi Calm Calm - -   Scattered Clouds
11:00 PM 78.8 °F - 77.0 °F 94% 30.01 in 6.2 mi Calm Calm - N/A   Partly Cloudy